When you browse on this site, cookies collect data to enhance your experience and personalize the content and advertising you see.
Visit our Privacy Policy to learn more. By continuing to use the site, you agree to this use of cookies and data.
  • Em Portugal
  • Lista de países
  • Para 7 dias
  • Temperatura da água
  • Mapa do tempo
  • Widgets de tempo
  • user-avatar
    Iniciar Sessão

    Previsão horária em Tretniki

    Hoje, 20 Janeiro, Segunda-feira

    Tempo Temperatura Precipitação Vento Pressão Humidade
    00:00 0°C° 0 mm 5 m/s 749 mmHg 89%
    01:00 0°C° 0 mm 5 m/s 749 mmHg 89%
    02:00 -2°C° 0 mm 6 m/s 749 mmHg 90%
    03:00 -1°C° 0 mm 5 m/s 749 mmHg 89%
    04:00 0°C° 0 mm 5 m/s 749 mmHg 89%
    05:00 0°C° 0 mm 4 m/s 749 mmHg 89%
    06:00 -1°C° 0 mm 5 m/s 749 mmHg 90%
    07:00 -1°C° 0 mm 5 m/s 749 mmHg 91%
    08:00 -1°C° 0 mm 5 m/s 749 mmHg 91%
    09:00 -1°C° 0 mm 5 m/s 749 mmHg 92%
    10:00 -1°C° 0 mm 5 m/s 749 mmHg 92%
    11:00 -1°C° 0 mm 5 m/s 749 mmHg 93%
    12:00 -1°C° 0 mm 5 m/s 750 mmHg 91%
    13:00 -1°C° 0 mm 5 m/s 750 mmHg 89%
    14:00 -1°C° 0 mm 5 m/s 750 mmHg 87%
    15:00 -1°C° 0 mm 5 m/s 749 mmHg 86%
    16:00 -1°C° 0 mm 5 m/s 749 mmHg 84%
    17:00 -1°C° 0 mm 5 m/s 748 mmHg 83%
    18:00 -1°C° 0 mm 5 m/s 748 mmHg 82%
    19:00 -1°C° 0 mm 5 m/s 748 mmHg 82%
    20:00 -2°C° 0 mm 5 m/s 747 mmHg 82%
    21:00 -2°C° 0 mm 5 m/s 747 mmHg 81%
    22:00 -2°C° 0 mm 5 m/s 746 mmHg 80%
    23:00 -3°C° 0 mm 6 m/s 745 mmHg 78%

    Amanhã, 21 Janeiro, Terça-feira

    Tempo Temperatura Precipitação Vento Pressão Humidade
    00:00 -3°C° 0 mm 6 m/s 744 mmHg 80%
    01:00 -2°C° 0 mm 6 m/s 744 mmHg 82%
    02:00 -2°C° 0 mm 6 m/s 743 mmHg 84%
    03:00 -2°C° 0.1 mm 6 m/s 742 mmHg 86%
    04:00 -2°C° 0.1 mm 6 m/s 741 mmHg 87%
    05:00 -1°C° 0.1 mm 6 m/s 740 mmHg 89%
    06:00 -1°C° 0.1 mm 6 m/s 740 mmHg 90%
    07:00 +1°C° 0.1 mm 6 m/s 739 mmHg 91%
    08:00 +1°C° 0.1 mm 6 m/s 739 mmHg 92%
    09:00 +2°C° 0 mm 6 m/s 738 mmHg 91%
    10:00 +2°C° 0 mm 6 m/s 737 mmHg 91%
    11:00 +2°C° 0 mm 6 m/s 737 mmHg 91%
    12:00 +3°C° 0.2 mm 6 m/s 736 mmHg 91%
    13:00 +3°C° 0.2 mm 5 m/s 736 mmHg 91%
    14:00 +3°C° 0.2 mm 5 m/s 735 mmHg 91%
    15:00 +3°C° 1.3 mm 5 m/s 735 mmHg 92%
    16:00 +3°C° 1.3 mm 5 m/s 734 mmHg 93%
    17:00 +3°C° 1.3 mm 6 m/s 733 mmHg 94%
    18:00 +2°C° 0.2 mm 6 m/s 733 mmHg 89%
    19:00 +2°C° 0.2 mm 6 m/s 733 mmHg 84%
    20:00 +1°C° 0.2 mm 6 m/s 734 mmHg 79%
    21:00 -1°C° 0 mm 6 m/s 734 mmHg 77%
    22:00 -2°C° 0 mm 6 m/s 734 mmHg 74%
    23:00 -2°C° 0 mm 6 m/s 734 mmHg 72%

    Depois de amanhã, 22 Janeiro, Quarta-feira

    Tempo Temperatura Precipitação Vento Pressão Humidade
    00:00 -3°C° 0 mm 6 m/s 734 mmHg 74%
    01:00 -3°C° 0 mm 6 m/s 734 mmHg 76%
    02:00 -3°C° 0 mm 6 m/s 733 mmHg 77%
    03:00 -3°C° 0 mm 6 m/s 733 mmHg 78%
    04:00 -3°C° 0 mm 6 m/s 732 mmHg 78%
    05:00 -3°C° 0 mm 6 m/s 731 mmHg 79%
    06:00 -3°C° 0.1 mm 6 m/s 731 mmHg 80%
    07:00 -4°C° 0.1 mm 6 m/s 730 mmHg 81%
    08:00 -4°C° 0.1 mm 6 m/s 730 mmHg 82%
    09:00 -4°C° 0.3 mm 6 m/s 730 mmHg 80%
    10:00 -3°C° 0.3 mm 6 m/s 730 mmHg 78%
    11:00 -3°C° 0.3 mm 6 m/s 729 mmHg 76%
    12:00 -3°C° 0.1 mm 6 m/s 729 mmHg 73%
    13:00 -3°C° 0.1 mm 6 m/s 729 mmHg 70%
    14:00 -3°C° 0.1 mm 6 m/s 729 mmHg 67%
    15:00 -4°C° 0 mm 6 m/s 730 mmHg 70%
    16:00 -4°C° 0 mm 6 m/s 730 mmHg 74%
    17:00 -5°C° 0 mm 5 m/s 730 mmHg 78%
    18:00 -5°C° 0.1 mm 6 m/s 730 mmHg 79%
    19:00 -5°C° 0.1 mm 6 m/s 731 mmHg 80%
    20:00 -5°C° 0.1 mm 6 m/s 731 mmHg 81%
    21:00 -6°C° 0 mm 6 m/s 732 mmHg 76%
    22:00 -6°C° 0 mm 6 m/s 732 mmHg 72%
    23:00 -8°C° 0 mm 6 m/s 733 mmHg 67%

    23 Janeiro, Quinta-feira

    Tempo Temperatura Precipitação Vento Pressão Humidade
    00:00 -8°C° 0 mm 6 m/s 734 mmHg 65%
    01:00 -9°C° 0 mm 6 m/s 734 mmHg 63%
    02:00 -9°C° 0 mm 6 m/s 735 mmHg 61%
    03:00 -9°C° 0 mm 6 m/s 736 mmHg 59%
    04:00 -9°C° 0 mm 6 m/s 736 mmHg 56%
    05:00 -9°C° 0 mm 6 m/s 737 mmHg 53%
    06:00 -9°C° 0 mm 6 m/s 737 mmHg 53%
    07:00 -9°C° 0 mm 6 m/s 738 mmHg 53%
    08:00 -9°C° 0 mm 6 m/s 738 mmHg 53%
    09:00 -9°C° 0 mm 6 m/s 739 mmHg 52%
    10:00 -8°C° 0 mm 6 m/s 739 mmHg 52%
    11:00 -8°C° 0 mm 6 m/s 740 mmHg 51%
    12:00 -8°C° 0 mm 6 m/s 740 mmHg 51%
    13:00 -6°C° 0 mm 6 m/s 740 mmHg 51%
    14:00 -6°C° 0 mm 5 m/s 741 mmHg 52%
    15:00 -7°C° 0 mm 4 m/s 741 mmHg 56%
    16:00 -6°C° 0 mm 3 m/s 741 mmHg 60%
    17:00 -5°C° 0 mm 2 m/s 741 mmHg 64%
    18:00 -5°C° 0 mm 2 m/s 741 mmHg 67%
    19:00 -6°C° 0 mm 3 m/s 740 mmHg 69%
    20:00 -6°C° 0 mm 3 m/s 740 mmHg 71%
    21:00 -5°C° 0.1 mm 3 m/s 740 mmHg 77%
    22:00 -5°C° 0.1 mm 4 m/s 739 mmHg 83%
    23:00 -5°C° 0.1 mm 4 m/s 738 mmHg 89%

    24 Janeiro, Sexta-feira

    Tempo Temperatura Precipitação Vento Pressão Humidade
    00:00 -6°C° 0.6 mm 5 m/s 737 mmHg 90%
    01:00 -5°C° 0.6 mm 5 m/s 736 mmHg 92%
    02:00 -5°C° 0.6 mm 6 m/s 735 mmHg 93%
    03:00 -5°C° 0.7 mm 6 m/s 734 mmHg 94%
    04:00 -4°C° 0.7 mm 5 m/s 733 mmHg 95%
    05:00 -4°C° 0.7 mm 5 m/s 732 mmHg 96%
    06:00 -2°C° 0.3 mm 5 m/s 732 mmHg 94%
    07:00 -1°C° 0.3 mm 5 m/s 732 mmHg 92%
    08:00 +1°C° 0.3 mm 5 m/s 732 mmHg 90%
    09:00 +1°C° 0 mm 6 m/s 732 mmHg 87%
    10:00 -1°C° 0 mm 6 m/s 732 mmHg 84%
    11:00 -1°C° 0 mm 6 m/s 733 mmHg 82%
    12:00 0°C° 0 mm 5 m/s 733 mmHg 81%
    13:00 0°C° 0 mm 5 m/s 733 mmHg 80%
    14:00 -1°C° 0 mm 4 m/s 734 mmHg 79%
    15:00 -1°C° 0 mm 4 m/s 734 mmHg 83%
    16:00 -1°C° 0 mm 3 m/s 734 mmHg 88%
    17:00 -2°C° 0 mm 3 m/s 734 mmHg 92%
    18:00 -2°C° 0 mm 3 m/s 735 mmHg 93%
    19:00 -2°C° 0 mm 2 m/s 735 mmHg 93%
    20:00 -2°C° 0 mm 2 m/s 735 mmHg 94%
    21:00 -2°C° 0 mm 2 m/s 735 mmHg 95%
    22:00 -2°C° 0 mm 2 m/s 734 mmHg 96%
    23:00 -2°C° 0 mm 2 m/s 734 mmHg 97%

    25 Janeiro, Sábado

    Tempo Temperatura Precipitação Vento Pressão Humidade
    00:00 -2°C° 0 mm 2 m/s 734 mmHg 97%
    01:00 -2°C° 0 mm 2 m/s 734 mmHg 97%
    02:00 -2°C° 0 mm 2 m/s 733 mmHg 98%
    03:00 -1°C° 0.6 mm 2 m/s 733 mmHg 98%
    04:00 +1°C° 0.6 mm 2 m/s 733 mmHg 98%
    05:00 +1°C° 0.6 mm 2 m/s 732 mmHg 98%
    06:00 +1°C° 0.4 mm 3 m/s 732 mmHg 97%
    07:00 +1°C° 0.4 mm 3 m/s 732 mmHg 97%
    08:00 +2°C° 0.4 mm 3 m/s 732 mmHg 97%
    09:00 +2°C° 0.2 mm 3 m/s 732 mmHg 96%
    10:00 +2°C° 0.2 mm 3 m/s 732 mmHg 96%
    11:00 +2°C° 0.2 mm 3 m/s 732 mmHg 95%
    12:00 +2°C° 0.2 mm 3 m/s 733 mmHg 96%
    13:00 +2°C° 0.2 mm 3 m/s 733 mmHg 96%
    14:00 +2°C° 0.2 mm 3 m/s 733 mmHg 97%
    15:00 +2°C° 0.1 mm 3 m/s 733 mmHg 96%
    16:00 +1°C° 0.1 mm 3 m/s 734 mmHg 96%
    17:00 +1°C° 0.1 mm 3 m/s 734 mmHg 96%
    18:00 +2°C° 0 mm 2 m/s 734 mmHg 96%
    19:00 +1°C° 0 mm 2 m/s 735 mmHg 96%
    20:00 -1°C° 0 mm 2 m/s 735 mmHg 96%
    21:00 +1°C° 0 mm 2 m/s 735 mmHg 95%
    22:00 +1°C° 0 mm 2 m/s 735 mmHg 94%
    23:00 0°C° 0 mm 3 m/s 735 mmHg 93%
    Mostrar mais